AO-07 1 07530U 74089B 19122.78290779 -.00000038 00000-0 40200-4 0 9999 2 07530 101.7397 90.9332 0012587 77.7949 347.8662 12.53637925 34643 UO-11 1 14781U 84021B 19122.87706182 .00000054 00000-0 12699-4 0 9990 2 14781 97.6149 149.7992 0009982 110.3829 249.8458 14.83080235891824 LO-19 1 20442U 90005G 19121.83747209 -.00000024 00000-0 77164-5 0 9997 2 20442 98.6452 63.9273 0010711 293.2558 66.7498 14.32923472529522 HUBBLE 1 20580U 90037B 19122.19905823 .00000408 00000-0 13881-4 0 9993 2 20580 28.4683 165.9779 0002610 339.2165 77.4452 15.09215464393708 MET-2/21 1 22782U 93055A 19122.24181509 -.00000008 00000-0 -20613-4 0 9994 2 22782 82.5515 200.7226 0021144 313.7782 98.6542 13.83818352296307 AO-27 1 22825U 93061C 19122.41230883 -.00000009 00000-0 14296-4 0 9998 2 22825 98.9012 109.9765 0009209 131.7084 228.4887 14.30057045335190 IO-26 1 22826U 93061D 19121.93533707 .00000001 00000-0 18353-4 0 9995 2 22826 098.8951 109.4863 0009837 123.1754 237.0372 14.30390355335078 FO-29 1 24278U 96046B 19121.93020634 -.00000054 00000-0 -18105-4 0 9999 2 24278 098.5303 281.8349 0350379 004.0609 356.3247 13.53090688121090 NOAA-15 1 25338U 98030A 19122.54258882 .00000036 00000-0 33880-4 0 9993 2 25338 98.7505 143.8848 0010817 26.3891 333.7838 14.25904641 90537 GO-32 1 25397U 98043D 19122.39068944 -.00000024 00000-0 87166-5 0 9998 2 25397 98.6856 63.1170 0001759 133.7890 226.3434 14.23664373 81148 ISS 1 25544U 98067A 19122.72226694 .00001831 00000-0 36678-4 0 9990 2 25544 51.6418 227.1642 0000922 267.0206 187.6969 15.52619141168193 NO-44 1 26931U 01043C 19121.46949968 -.00000029 00000-0 20615-4 0 9998 2 26931 67.0493 128.1166 0006157 279.5852 80.4553 14.30539956918079 SO-50 1 27607U 02058C 19122.37526120 .00000007 00000-0 21877-4 0 9994 2 27607 64.5547 194.2597 0082362 265.5448 93.6241 14.75540580880052 CO-55 1 27844U 03031E 19121.95264890 .00000053 00000-0 43454-4 0 9991 2 27844 098.6854 130.8771 0010168 162.6452 197.5075 14.22173103821465 CO-57 1 27848U 03031J 19121.93120046 .00000034 00000-0 35417-4 0 9996 2 27848 098.6932 131.3454 0009842 173.6588 186.4716 14.21768796821320 RS-22 1 27939U 03042A 19122.70516392 .00000122 00000-0 30509-4 0 9993 2 27939 98.0313 259.4575 0012262 211.2543 148.7940 14.66773671833650 NOAA-18 1 28654U 05018A 19122.52797276 .00000055 00000-0 54954-4 0 9990 2 28654 99.1010 168.7782 0013356 312.9734 47.0317 14.12419929718856 CO-58 1 28895U 05043F 19122.33811287 .00000121 00000-0 31942-4 0 9999 2 28895 97.9515 266.7122 0017834 138.0109 222.2464 14.63654353720563 Falconsat-3 1 30776U 07006E 19122.17814356 .00002390 00000-0 68045-4 0 9997 2 30776 35.4361 33.8717 0002267 17.6703 342.4102 15.35987102673370 CO-65 1 32785U 08021C 19122.75734105 .00000205 00000-0 27780-4 0 9998 2 32785 97.5496 124.6868 0014506 62.1307 298.1378 14.88287493596706 AAUSAT2 1 32788U 08021F 19122.72145321 .00000770 00000-0 75957-4 0 9990 2 32788 97.4996 140.5253 0011762 6.1437 353.9926 14.94677972597905 DO-64 1 32789U 08021G 19122.73729158 .00001196 00000-0 84195-4 0 9995 2 32789 97.4691 173.8110 0010483 287.7703 72.2380 15.06841324599894 CO-66 1 32791U 08021J 19121.84781237 .00000325 00000-0 38395-4 0 9999 2 32791 97.5291 129.7413 0014426 42.7245 317.5093 14.90787110596988 RS-30 1 32953U 08025A 19122.88334846 .00000020 00000-0 75656-4 0 9991 2 32953 82.5049 173.8755 0018261 228.7207 131.2301 12.43089054496493 PRISM 1 33493U 09002B 19122.72811504 .00001015 00000-0 94594-4 0 9998 2 33493 98.1231 41.9018 0014750 345.4595 14.6198 14.96603619558128 NOAA-19 1 33591U 09005A 19122.57865976 .00000038 00000-0 46028-4 0 9998 2 33591 99.1783 112.5673 0014510 147.1861 213.0213 14.12347902527261 TISAT-1 1 36799U 10035E 19122.70792710 .00000419 00000-0 48454-4 0 9994 2 36799 98.1490 273.3207 0011175 236.2593 123.7560 14.91067022477763 JUGNU 1 37839U 11058B 19121.79006696 .00000304 00000-0 19983-4 0 9993 2 37839 019.9611 265.2597 0018859 158.7187 348.2329 14.12648736390367 SRMSAT 1 37841U 11058D 19121.83453296 .00000312 00000-0 26461-4 0 9991 2 37841 19.9730 320.7740 0011729 31.2159 81.9928 14.10630355389924 AO-71 1 37854U 11061E 19121.86975008 .00001016 00000-0 59897-4 0 9993 2 37854 101.7082 355.5371 0161030 207.8360 151.4167 15.06297775409348 HRBE 1 37855U 11061F 19122.60813774 .00000834 00000-0 49908-4 0 9997 2 37855 101.7213 354.0283 0173772 216.3448 142.5861 15.05302896409699 ALMASAT-1 1 38078U 12006B 19122.89016031 .00045517 45481-5 26892-3 0 9997 2 38078 69.4288 40.0340 0171626 334.3670 91.0383 15.60469826390187 HORYU-2 1 38340U 12025D 19122.65468691 .00000171 00000-0 33014-4 0 9992 2 38340 98.3339 159.8217 0010124 274.2477 85.7575 14.75699259374221 RS-40 1 38735U 12041C 19122.12277008 .00000038 00000-0 20389-3 0 9992 2 38735 82.4737 257.7352 0016452 342.2397 17.8110 12.42578396306642 BEESAT-3 1 39135U 13015F 19122.61990473 .00000797 00000-0 49519-4 0 9990 2 39135 64.8661 190.5730 0014166 322.4100 37.6034 15.17357811333101 BEESAT-2 1 39136U 13015G 19121.58449424 .00000752 00000-0 47981-4 0 9993 2 39136 64.8692 197.5858 0014961 312.3108 47.6749 15.16799907332875 ZACUBE-1 1 39417U 13066B 19122.75164180 .00000201 00000-0 31583-4 0 9994 2 39417 97.5651 138.8859 0058802 186.3770 173.6702 14.81091886294092 TRITON-1 1 39427U 13066M 19122.41854183 .00000193 00000-0 39016-4 0 9996 2 39427 97.6726 102.7274 0112832 317.4755 41.7752 14.67818675291401 GOMX-1 1 39430U 13066Q 19122.85832377 .00000222 00000-0 48813-4 0 9997 2 39430 97.7417 82.5087 0152501 42.2598 319.0263 14.59229751289772 LO-74 1 39440U 13066AA 19122.22354108 .00000196 00000-0 34400-4 0 9997 2 39440 97.6021 123.4651 0078939 238.6090 120.7382 14.75831340292971 AO-73 1 39444U 13066AE 19122.84558249 .00000248 00000-0 36836-4 0 9994 2 39444 97.5635 140.8734 0058137 180.1070 180.0141 14.81905371292994 SPROUT 1 39770U 14029E 19122.73961480 .00000773 00000-0 91848-4 0 9996 2 39770 97.8793 226.3514 0007810 236.9746 123.0766 14.87279712267858 DUCHIFAT-1 1 40021U 14033M 19122.35309644 .00000344 00000-0 41008-4 0 9995 2 40021 97.9236 46.7934 0012182 200.4164 159.6568 14.90588879264493 NANOSATCBR1 1 40024U 14033Q 19122.35501982 .00000246 00000-0 31604-4 0 9999 2 40024 97.9138 44.3365 0011441 203.4941 156.5755 14.89808488264394 EO-79 1 40025U 14033R 19122.32162617 .00000291 00000-0 36971-4 0 9997 2 40025 97.9067 42.0813 0011569 209.9449 150.1108 14.88913655264275 DTUSAT-2 1 40030U 14033W 19122.30476557 .00000236 00000-0 31424-4 0 9999 2 40030 97.8989 40.3027 0011095 204.7346 155.3340 14.88509314264205 EO-80 1 40032U 14033Y 19122.30847477 .00000247 00000-0 32624-4 0 9999 2 40032 97.8996 40.3076 0011050 205.5161 154.5511 14.88450721264190 ANTELSAT 1 40034U 14033AA 19121.85020216 .00000183 00000-0 34669-4 0 9994 2 40034 97.7679 351.0417 0057283 250.5190 108.9825 14.74079730261628 VELOX-1 1 40057U 14034E 19122.88519801 .00000231 00000-0 39864-4 0 9993 2 40057 98.2274 244.9829 0011552 30.7199 329.4680 14.77634671260850 DAURIA DX 1 1 40071U 14037C 19122.80982132 .00000110 00000-0 21661-4 0 9997 2 40071 98.4190 274.3184 0009025 24.5377 335.6265 14.81257555260313 UKUBE-1 1 40074U 14037F 19122.77020913 .00000326 00000-0 46298-4 0 9998 2 40074 98.4316 282.0817 0005559 23.7698 336.3776 14.84020149260696 HODOYOSHI-1 1 40299U 14070B 19122.81677287 .00000454 00000-0 22062-4 0 9996 2 40299 97.3493 203.5425 0012090 200.4283 278.3010 15.23304681249136 CHUBUSAT-1 1 40300U 14070C 19122.79055618 .00000675 00000-0 32435-4 0 9994 2 40300 97.3281 198.1518 0018925 218.6947 258.1167 15.22016818248888 QSAT-EOS 1 40301U 14070D 19122.75508791 .00001343 00000-0 55036-4 0 9991 2 40301 97.3282 200.8892 0025077 201.3465 277.5123 15.25757800249138 FIREBIRD FU3 1 40377U 15003B 19122.70779130 .00001365 00000-0 58168-4 0 9996 2 40377 99.1099 93.3483 0126448 246.8341 111.9525 15.18609867234793 FIREBIRD FU4 1 40378U 15003C 19122.89281560 .00001281 00000-0 54851-4 0 9994 2 40378 99.1102 93.6450 0126677 246.1022 112.6894 15.18615021234829 GRIFEX 1 40379U 15003D 19122.84824319 .00001046 00000-0 49149-4 0 9998 2 40379 99.1088 87.9467 0134490 264.0532 94.5353 15.15354649234498 NO-84 1 40654U 15025D 19122.34183427 .00004852 00000-0 74395-4 0 06054 2 40654 054.9914 028.6027 0138845 203.0826 156.3998 15.46279129105124 NO-83 1 40655U 15025E 19122.48919167 .00033329 00000-0 19748-3 0 07229 2 40655 054.9675 283.0465 0062100 267.6295 091.7760 15.75029831106279 DEORBITSAIL 1 40719U 15032E 19122.69939850 .00000354 00000-0 57667-4 0 9993 2 40719 97.9138 15.4666 0017874 96.2875 264.0372 14.76698545205323 NUDT-PHONESAT 1 40900U 15049B 19122.72186461 .00001837 00000-0 81994-4 0 9996 2 40900 97.4391 132.5235 0012833 358.7471 89.4672 15.22587599200518 XW-2A 1 40903U 15049E 19122.90098380 .00001651 00000-0 41151-4 0 9996 2 40903 97.3438 165.3911 0012383 321.8221 32.9763 15.41662929203037 XW-2C 1 40906U 15049H 19122.77517361 .00000737 00000-0 42204-4 0 9993 2 40906 97.4677 125.6339 0015146 9.5252 342.4292 15.15610904199883 XW-2D 1 40907U 15049J 19122.78296356 .00000477 00000-0 28437-4 0 9996 2 40907 97.4655 125.3197 0014639 6.8079 118.4510 15.15791471199908 LILACSAT-2 1 40908U 15049K 19122.72671539 .00000513 00000-0 32008-4 0 9991 2 40908 97.4785 124.1892 0016500 11.4685 74.4185 15.13764074199700 XW-2E 1 40909U 15049L 19122.76540914 .00000740 00000-0 40038-4 0 9992 2 40909 97.4603 127.9903 0013901 3.4547 82.8876 15.17675050200076 XW-2F 1 40910U 15049M 19122.78854458 .00000877 00000-0 47428-4 0 9998 2 40910 97.4624 127.2168 0015049 0.6303 123.9837 15.17191103199906 XW-2B 1 40911U 15049N 19122.78966435 .00000774 00000-0 44038-4 0 9998 2 40911 97.4685 125.9620 0014336 7.7453 347.5751 15.15725163199797 DCBB 1 40912U 15049P 19122.82463053 .00001023 00000-0 51348-4 0 9992 2 40912 97.4510 130.7892 0014437 343.3465 140.6042 15.19489563200191 TW-1C 1 40926U 15051B 19122.74672398 .00009675 00000-0 14722-3 0 9990 2 40926 97.1411 168.9992 0008795 172.3167 282.4391 15.54688337202863 TW-1A 1 40928U 15051D 19122.72937444 .00002409 00000-0 61374-4 0 9990 2 40928 97.1512 155.0720 0009468 239.8781 213.7542 15.40478761201948 IO-86 1 40931U 15052B 19122.13627033 .00000911 00000-0 37855-4 0 9993 2 40931 6.0003 35.6771 0013465 206.9838 153.0373 14.76606943194228 LQSat 1 40958U 15057A 19122.76275046 .00000022 00000-0 11138-4 0 9998 2 40958 97.9015 193.2182 0018916 35.9980 324.2498 14.73075435191893 AO-85 1 40967U 15058D 19121.14446158 .00000121 00000-0 30914-4 0 06747 2 40967 064.7781 305.7989 0205345 217.9619 140.6863 14.75919560100574 ATHENOXAT-1 1 41168U 15077C 19122.85154939 .00001840 00000-0 62361-4 0 9994 2 41168 14.9872 199.3236 0011569 162.1842 197.8885 15.13527942186877 ChubuSat-2 1 41338U 16012B 19122.31644094 .00000349 00000-0 20468-4 0 9995 2 41338 31.0030 85.8385 0013722 353.6136 6.4323 15.00131896175798 ChubuSat-3 1 41339U 16012C 19122.29149851 .00000292 00000-0 15987-4 0 9991 2 41339 31.0096 84.1544 0013721 0.6567 359.4086 15.00308582175780 Horyu-4 1 41340U 16012D 19121.96557979 .00000498 00000-0 31198-4 0 9990 2 41340 031.0050 078.0899 0013883 015.2987 344.8067 15.01231767175838 OUFTI-1 1 41458U 16025C 19121.87518840 .00001475 00000-0 78774-4 0 9995 2 41458 098.1011 206.2973 0167778 157.3951 203.4778 15.05635140165373 [email protected] 1 41459U 16025D 19122.74458210 .00001096 00000-0 59881-4 0 9994 2 41459 98.1026 206.9038 0169693 155.5721 205.3679 15.05292838165488 AAUSAT4 1 41460U 16025E 19122.77806601 .00003295 00000-0 16789-3 0 9992 2 41460 98.0971 208.0608 0159591 148.9264 212.1518 15.07113731165606 LO-87 1 41557U 16033B 19122.86728338 .00001292 00000-0 51272-4 0 9990 2 41557 97.4172 210.6448 0015597 102.5382 257.7603 15.27087537162944 NuSat2 1 41558U 16033C 19122.82916299 .00001433 00000-0 53450-4 0 9999 2 41558 97.4197 211.5016 0014628 103.8441 256.4428 15.28989855162976 Lapan A3 1 41603U 16040E 19122.83845076 .00000099 00000-0 77828-5 0 9996 2 41603 97.3653 182.6954 0012760 196.2583 299.1996 15.19696949158620 Swayam 1 41607U 16040J 19122.69569016 .00001481 00000-0 65583-4 0 9991 2 41607 97.3695 185.6118 0013222 189.3488 170.7504 15.23148217158721 Pratham 1 41783U 16059A 19122.13402806 .00000047 00000-0 18415-4 0 9997 2 41783 98.0718 182.7549 0033855 171.3168 188.8627 14.62986855138595 AlSat 1N 1 41789U 16059G 19122.70991004 .00000040 00000-0 16591-4 0 9995 2 41789 98.0734 185.2101 0028867 158.8199 201.4202 14.64233495138770 ScatSat 1 41790U 16059H 19121.72104502 .00000010 00000-0 13631-4 0 9996 2 41790 98.2144 167.9450 0017912 189.8923 170.1922 14.50876161137375 TY-1 1 41844U 16066D 19122.70135413 .00000832 00000-0 36990-4 0 9993 2 41844 97.4065 130.6288 0015347 0.9334 124.1085 15.24195547137534 Pegasus-1 1 41846U 16066F 19122.68920281 .00000245 00000-0 47514-4 0 9999 2 41846 98.7164 162.1226 0367925 18.3148 343.0891 14.37541533129801 CAS-2T 1 41847U 16066G 19122.85059837 .00000069 00000-0 20894-4 0 9995 2 41847 98.7110 162.8132 0366215 14.4857 346.6496 14.37977039130267 EO-88 1 42017U 17008BX 19122.73054591 .00001513 00000-0 62817-4 0 9997 2 42017 97.4064 190.3029 0005644 351.2298 8.8840 15.25382124122768 PHOENIX 1 42706U 98067LP 19122.48385964 .00888900 48888-3 72871-3 0 9991 2 42706 51.6163 142.3772 0006376 25.7169 334.4163 16.13450692112387 ZA-AeroSat 1 42713U 98067LU 19122.46118821 .00221009 31162-4 45847-3 0 9995 2 42713 51.6260 150.7075 0007188 19.1092 341.0186 15.98650255111934 NJUST-1 1 42722U 98067MB 19122.67046358 .00074139 13117-4 25918-3 0 9990 2 42722 51.6336 157.3291 0007661 17.9986 82.8951 15.89429215110934 nSIGHT1 1 42726U 98067MF 19122.75003044 .00020888 00000-0 17792-3 0 9994 2 42726 51.6367 188.5111 0006081 357.0377 3.0583 15.69508815110440 Aoxiang-1 1 42735U 98067MQ 19122.69841613 .00114759 16142-4 33453-3 0 9990 2 42735 51.6262 154.3208 0008212 24.4561 81.3380 15.92640294112103 CAS-4B 1 42759U 17034B 19122.88586843 .00000069 00000-0 17795-4 0 9995 2 42759 43.0174 127.8426 0012171 313.2493 116.6833 15.09549914103767 CAS-4A 1 42761U 17034D 19122.84988400 .00000077 00000-0 18267-4 0 9993 2 42761 43.0177 127.6051 0012500 314.4071 107.2910 15.09626640103759 UCLSat 1 42765U 17036A 19122.15611862 .00001143 00000-0 52046-4 0 9996 2 42765 97.3555 181.1726 0012623 43.9547 316.2691 15.22623611103238 NIUSat 1 42766U 17036B 19122.13858483 .00000914 00000-0 44178-4 0 9999 2 42766 97.3554 179.6966 0016548 33.0025 327.2240 15.21009117103002 LituanicaSAT 2 1 42768U 17036D 19122.72682411 .00002068 00000-0 91704-4 0 9991 2 42768 97.3588 181.3107 0015943 31.6493 328.5699 15.22600232103164 Aalto 1 1 42775U 17036L 19122.17257279 .00000855 00000-0 41261-4 0 9993 2 42775 97.3542 180.0458 0014866 33.4281 326.7890 15.21256360102985 URSA MAIOR 1 42776U 17036M 19122.40044492 .00000921 00000-0 44025-4 0 9996 2 42776 97.3551 180.4008 0014666 32.8227 327.3917 15.21382652103029 Max Valier Sat 1 42778U 17036P 19122.71712353 .00000999 00000-0 46806-4 0 9994 2 42778 97.3587 181.4083 0013324 36.7723 323.4425 15.21919094103092 Pegasus 1 42784U 17036V 19122.10695095 .00001086 00000-0 49966-4 0 9995 2 42784 97.3560 180.9610 0013197 44.1922 316.0366 15.22377314103021 NUDATSat 1 42787U 17036Y 19122.85658665 .00001855 00000-0 81027-4 0 9990 2 42787 97.3590 182.2956 0013601 37.2151 322.9997 15.23290407103015 SUCHAI 1 1 42788U 17036Z 19122.71809201 .00001366 00000-0 61349-4 0 9992 2 42788 97.3563 181.8265 0012714 41.8977 318.3231 15.22772490103202 SKCUBE 1 42789U 17036AA 19121.67946227 .00001170 00000-0 53120-4 0 9998 2 42789 097.3561 180.7616 0012659 045.3775 314.8492 15.22678309102968 VZLUSAT 1 1 42790U 17036AB 19121.92380103 .00001574 00000-0 69226-4 0 9995 2 42790 097.3574 181.3852 0012188 044.3392 315.8819 15.23285073103029 VENTA 1 1 42791U 17036AC 19121.91694825 .00001139 00000-0 51786-4 0 9993 2 42791 097.3559 181.0452 0012299 045.1605 315.0629 15.22699577102998 Robusta 1B 1 42792U 17036AD 19122.66682345 .00001278 00000-0 57481-4 0 9993 2 42792 97.3560 181.8638 0012184 43.0809 317.1379 15.22844323103134 D-SAT 1 42794U 17036AF 19121.82585183 .00000095 00000-0 13934-4 0 9995 2 42794 97.5448 168.6193 0125250 301.5683 57.3356 14.91067516101203 BIRD-J 1 42820U 98067MU 19122.92399522 .07959537 12408-4 57924-3 0 9996 2 42820 51.6136 143.7951 0001344 294.0069 67.2391 16.40003495104412 BIRD-G 1 42821U 98067MV 19122.46128892 .00319183 55343-4 54052-3 0 9990 2 42821 51.6181 152.8038 0007821 18.8051 341.3247 16.02079172104238 BIRD-M 1 42822U 98067MW 19122.59086365 .00645609 23322-3 64016-3 0 9990 2 42822 51.6208 149.2129 0007631 20.5658 339.5662 16.10585939104290 BIRD-B 1 42823U 98067MX 19122.55398258 .01346132 14648-2 80050-3 0 9990 2 42823 51.6203 147.8485 0006249 13.4426 125.6926 16.18143588104311 BIRD-N 1 42824U 98067MY 19122.47669855 .00537825 15527-3 61912-3 0 9990 2 42824 51.6221 150.7808 0008434 18.4345 341.6972 16.08286843104252 TechnoSat 1 42829U 17042E 19122.70026808 .00000119 00000-0 17491-4 0 9992 2 42829 97.5696 17.5222 0013274 211.3433 148.6996 14.90954616 97938 TOMSK-TPU 120 1 42910U 98067MZ 19122.91584804 .00036383 00000-0 19729-3 0 9994 2 42910 51.6340 172.3930 0006576 359.2327 169.2535 15.79644461 97629 TANYUSHA 1 1 42911U 98067NA 19122.69879922 .00070366 00000-0 26472-3 0 9990 2 42911 51.6256 165.7012 0007288 7.6621 93.9067 15.87108579 97677 TANYUSHA 2 1 42912U 98067NB 19122.66033654 .00051631 00000-0 23327-3 0 9992 2 42912 51.6350 170.1573 0006971 3.8956 88.1280 15.83428864 97639 TNS 0-2 1 42914U 98067ND 19122.37040317 .00054601 00000-0 28903-3 0 9991 2 42914 51.6347 175.9509 0006413 354.1544 5.9382 15.79991404 97523 QIKCOM-1 1 42983U 98067NF 19122.83654101 .00003711 00000-0 54116-4 0 9992 2 42983 51.6395 215.4102 0003891 315.9514 44.1168 15.58520567 86036 AO-91 1 43017U 17073E 19122.35972971 .00000650 00000-0 56795-4 0 9998 2 43017 97.7234 45.5673 0257334 312.8196 45.1638 14.78504428 78266 EcAMSat 1 43019U 98067NG 19122.49003927 .00006993 00000-0 88722-4 0 9994 2 43019 51.6405 213.1322 0004450 294.3065 65.7464 15.60684040168355 PICSAT 1 43132U 18004X 19122.74226179 .00001363 00000-0 60169-4 0 9998 2 43132 97.4915 190.6457 0011280 64.6255 295.6148 15.23442085 72358 AO-92 1 43137U 18004AC 19122.73089151 .00001056 00000-0 47430-4 0 9994 2 43137 97.4907 190.6313 0010855 66.2541 293.9833 15.23360270 72344 TianYi 2 1 43155U 18008A 19122.85654172 .00000827 00000-0 53056-4 0 9998 2 43155 97.4886 196.3760 0019380 123.2464 300.2148 15.11060702 70757 Zhou Enlai 1 43156U 18008B 19122.89286997 .00000686 00000-0 45335-4 0 9993 2 43156 97.4927 196.3133 0016107 119.9148 329.0073 15.10557175 70731 TianYi 6 1 43158U 18008D 19122.79840108 .00000763 00000-0 50487-4 0 9994 2 43158 97.4890 195.7591 0015272 118.1530 359.9250 15.10165325 70686 S-Net G 1 43186U 18014G 19122.22300811 .00000663 00000-0 63220-4 0 9990 2 43186 97.7124 31.3598 0011685 157.1066 203.0678 14.96619029 68030 S-Net H 1 43187U 18014H 19122.75771124 .00000698 00000-0 66281-4 0 9996 2 43187 97.7123 31.8764 0011716 155.1419 205.0369 14.96619741 68114 S-Net J 1 43188U 18014J 19122.22262009 .00000655 00000-0 62554-4 0 9998 2 43188 97.7125 31.3640 0011647 157.1487 203.0255 14.96618701 68033 S-Net K 1 43189U 18014K 19122.22294789 .00000665 00000-0 63394-4 0 9993 2 43189 97.7123 31.3468 0011667 157.0344 203.1402 14.96618655 66584 FMN 1 1 43192U 18015A 19122.78654204 .00001848 00000-0 78752-4 0 9999 2 43192 97.3913 251.1535 0018116 98.2177 262.1118 15.24082140 69177 Shaonian Xing 1 43199U 18015H 19122.22331518 .00001344 00000-0 57095-4 0 9993 2 43199 97.3696 249.8216 0018838 110.2630 250.0636 15.24640633 69136 1KUNS-PF 1 43466U 98067NP 19122.48130434 .00022976 00000-0 23871-3 0 9995 2 43466 51.6377 213.7745 0001503 329.0168 31.0738 15.64513928 55524 UBAKUSAT 1 43467U 98067NQ 19122.52605057 .00015099 00000-0 17671-3 0 9998 2 43467 51.6375 216.3189 0002199 267.2503 92.8239 15.61777960 55506 Irazu 1 43468U 98067NR 19122.41891620 .00032915 00000-0 31072-3 0 9997 2 43468 51.6370 211.8454 0001970 334.5662 25.5236 15.66712925155536 EnduroSat One 1 43551U 98067NZ 19122.54419044 .00018173 00000-0 21299-3 0 9990 2 43551 51.6382 218.6871 0006417 331.0578 29.0060 15.61565896 45708 EQUISat 1 43552U 98067PA 19121.53058925 .00010049 00000-0 12528-3 0 9995 2 43552 51.6389 224.6797 0006541 326.2736 33.7840 15.60562466 45493 UiTMSat 1 1 43589U 98067PD 19121.53502514 .00011319 00000-0 14045-3 0 9990 2 43589 51.6365 225.4238 0005966 333.8214 26.2477 15.60537793 41226 Maya 1 1 43590U 98067PE 19122.49129206 .00017794 00000-0 21663-3 0 9998 2 43590 51.6369 220.5632 0006095 337.9840 22.0891 15.60590230 41308 Bhutan 1 1 43591U 98067PF 19122.29152338 .00017722 00000-0 21537-3 0 9990 2 43591 51.6382 221.4929 0006251 337.9317 22.1406 15.60638546 41278 SiriusSat 1 1 43595U 98067PG 19122.31891437 .00014966 00000-0 18796-3 0 9997 2 43595 51.6367 222.4101 0003739 299.3840 60.6780 15.59930136 40446 SiriusSat 2 1 43596U 98067PH 19122.34438435 .00016152 00000-0 20356-3 0 9990 2 43596 51.6378 222.6079 0004280 298.7318 61.3244 15.59767636 40446 Tanusha-3 1 43597U 98067PJ 19122.31960423 .00019250 00000-0 23028-3 0 9996 2 43597 51.6363 221.6429 0004100 313.5581 46.5072 15.60997578 40455 SurfSat 1 43614U 18070B 19121.88715279 .00002419 00000-0 66107-4 0 9995 2 43614 93.0276 343.9561 0018412 124.6241 235.6752 15.37306281 35064 CP-7 DAVE 1 43615U 18070C 19122.15102713 .00002136 00000-0 58495-4 0 9997 2 43615 93.0275 344.0670 0018500 123.4331 236.8694 15.37244316 35105 ELFIN-B 1 43616U 18070D 19122.11134709 .00003412 00000-0 91721-4 0 9991 2 43616 93.0243 343.9716 0019285 127.0422 233.2599 15.37762719 35109 ELFIN-A 1 43617U 18070E 19121.84605285 .00003318 00000-0 89175-4 0 9998 2 43617 93.0299 344.0399 0018466 124.8558 235.4435 15.37789970 35061 STARS-Me Mother 1 43640U 98067PQ 19122.15754939 .00010785 00000-0 14887-3 0 9997 2 43640 51.6382 225.8519 0005422 283.5042 76.5346 15.57750730 32313 CubeBel 1 1 43666U 18083E 19122.73822603 .00000981 00000-0 52280-4 0 9990 2 43666 97.5247 147.5305 0015182 358.5529 91.7170 15.17475420 28168 Changshagaoxin 1 43669U 18083H 19121.95358709 .00000611 00000-0 34597-4 0 9998 2 43669 097.5101 146.2021 0010694 355.7216 004.3924 15.16716290027995 Ten-Koh 1 43677U 18084G 19122.88740644 .00000058 00000-0 11761-4 0 9997 2 43677 97.8455 236.9391 0017528 78.2602 282.0581 14.90152911 27646 PO-101 1 43678U 18084H 19122.84708865 -.00000704 00000-0 -64578-4 0 9997 2 43678 97.8441 237.3120 0011261 96.0351 264.2155 14.91540761 27660 IRVINE 01 1 43693U 18088D 19122.78094285 .00002700 00000-0 11885-3 0 9993 2 43693 85.0364 349.1004 0019139 12.7693 347.4029 15.21179333 26232 QO-100 1 43700U 18090A 19122.79893753 .00000146 00000-0 00000 0 0 9998 2 43700 0.0465 86.6735 0001384 344.5627 102.5924 1.00273136 1820 Reaktor Hello World 1 43743U 18096AA 19122.77362448 .00001116 00000-0 45422-4 0 9991 2 43743 97.4627 192.8173 0019480 137.2492 339.3606 15.26486987 23572 MinXSS-2 1 43758U 18099A 19122.17790317 -.00000102 00000-0 -39796-5 0 9998 2 43758 97.7476 194.7858 0016971 123.4165 236.8682 14.95367995 22330 AO-95 1 43770U 18099N 19122.17369341 -.00000026 00000-0 29458-5 0 9999 2 43770 97.7478 194.6433 0015885 128.9054 231.3586 14.94731344 22328 RANGE-B 1 43772U 18099Q 19122.83530934 .00000249 00000-0 28106-4 0 9996 2 43772 97.7529 195.4091 0015741 115.4027 244.8824 14.94829397 22418 RANGE-A 1 43773U 18099R 19122.16774540 .00000047 00000-0 96423-5 0 9990 2 43773 97.7425 194.5567 0015034 117.1454 243.1301 14.94777835 22310 MOVE-II 1 43780U 18099Y 19122.95284501 .00001105 00000-0 10612-3 0 9998 2 43780 97.7479 195.4329 0015567 125.5647 234.6899 14.95002239 22420 SNUSat 2 1 43782U 18099AA 19122.74688525 .00000693 00000-0 68481-4 0 9990 2 43782 97.7473 195.2687 0014353 115.6775 244.5929 14.95020248 22407 SnugLite 1 43784U 18099AC 19122.20399880 .00000555 00000-0 55820-4 0 9996 2 43784 97.7437 194.6814 0016548 125.1243 235.1532 14.95094900 22332 ITASat 1 1 43786U 18099AE 19122.20234020 .00000448 00000-0 46053-4 0 9991 2 43786 97.7489 194.7883 0016637 124.2092 236.0708 14.95105534 22330 EAGLET 1 1 43790U 18099AJ 19122.16422976 .00000245 00000-0 27335-4 0 9997 2 43790 97.7485 194.8204 0014799 128.1084 232.1473 14.95484599 22023 ESEO 1 43792U 18099AL 19122.83090051 .00000749 00000-0 72744-4 0 9991 2 43792 97.7463 195.4508 0014623 122.4959 237.7635 14.95495495 22184 CSIM 1 43793U 18099AM 19122.75580192 .00000895 00000-0 85628-4 0 9990 2 43793 97.7424 195.2952 0014763 122.1377 238.1278 14.95635663 22146 Astrocast 0.1 1 43798U 18099AS 19122.74267034 .00000525 00000-0 52261-4 0 9998 2 43798 97.7467 195.4200 0014072 108.9842 251.2905 14.95712865 22400 JO-97 1 43803U 18099AX 19122.86033780 .00000209 00000-0 24187-4 0 9992 2 43803 97.7447 195.3783 0016565 122.9230 237.3587 14.95229163 22423 Suomi 100 1 43804U 18099AY 19122.85988477 .00000170 00000-0 20680-4 0 9995 2 43804 97.7445 195.3770 0016632 123.0243 237.2578 14.95230616 22434 Al Farabi 2 1 43805U 18099AZ 19122.85688417 .00000197 00000-0 23114-4 0 9991 2 43805 97.7448 195.3822 0016679 123.2295 237.0528 14.95277216 22436 PWSat 2 1 43814U 18099BJ 19122.16201893 .00015220 00000-0 12842-2 0 9991 2 43814 97.7757 195.1695 0014683 125.1325 235.1340 14.98151534 21733 CHOMPTT 1 43855U 18104G 19121.97560481 .00000653 00000-0 26415-4 0 9999 2 43855 85.0345 87.9783 0019577 124.2430 236.0686 15.22282139 20760 ISAT 1 43879U 18111D 19122.77054717 .00000583 00000-0 57098-4 0 9995 2 43879 97.7214 31.4497 0013149 173.7191 186.4198 14.95952784 16927 UWE-4 1 43880U 18111E 19122.68298938 .00000571 00000-0 55736-4 0 9996 2 43880 97.7218 31.4263 0012408 175.3533 184.7806 14.96191449 16920 Sparrow 1 43881U 18111F 19122.21109739 .00000399 00000-0 40421-4 0 9999 2 43881 97.7221 30.9757 0012496 176.1201 184.0119 14.96236711 16848 Lume 1 1 43908U 18111AJ 19122.73141651 .00001012 00000-0 44102-4 0 9998 2 43908 97.2934 29.2565 0022404 153.0707 207.1698 15.24227281 19292 FO-98 1 43933U 19003B 19122.86044855 .00000546 00000-0 27174-4 0 9990 2 43933 97.2864 181.9235 0016415 249.0590 199.1727 15.21554139 15935 FO-99 1 43937U 19003F 19122.73979278 .00001001 00000-0 44657-4 0 9998 2 43937 97.2808 182.0192 0023120 235.6573 242.1665 15.23440672 15932 Delphini 1 1 44030U 98067PW 19122.59673453 .00012168 00000-0 18051-3 0 9994 2 44030 51.6387 226.5324 0004920 333.3091 26.7646 15.55647076 14219 MYSat 1 1 44045U 18092F 19121.60271388 .00002171 00000-0 74715-4 0 9995 2 44045 51.6416 243.7356 0011199 269.9008 90.0719 15.34695623 11852 AstroCast 0.2 1 44083U 19018F 19122.77883725 .00000537 00000-0 27063-4 0 9997 2 44083 97.4728 183.1230 0014414 166.1987 193.9646 15.21321362 4781 AISTechSat 3 1 44103U 19018AB 19122.68828434 .00000936 00000-0 43344-4 0 9999 2 44103 97.4607 183.0233 0013536 184.9358 175.1747 15.22531762 4766 AISat 1 1 44104U 19018AC 19122.72387849 .00000727 00000-0 26330-4 0 9999 2 44104 97.5138 183.6044 0057968 232.1822 127.4163 15.30369196 4820 /EX